This demonstration page uses our WeatherBlox Daily Observations layout. Learn more.

Left ArrowRight Arrow

Hourly Observations for May 27, 2020

Temp ( °F °C ) Dew Point ( °F °C ) Humidity (%) Winds ( mph kmh ) Pressure ( in mb ) Visibility ( mi km ) Precip ( " mm )
12:05 am 00:05 Cloudy 64 17.8 61 16.1 90 90 NW 9 15 29.82 1010 7 11 0.00 0.00
12:52 am 00:52 Cloudy 64 17.8 61 16.1 90 90 NNW 7 11 29.84 1010 7 11 0.00 0.00
1:28 am 01:28 Cloudy with Light Rain 63 17.2 62 16.7 97 97 NW 5 7 29.83 1010 2 2 0.01 0.25
1:52 am 01:52 Cloudy with Drizzle 63 17.2 62 16.7 97 97 NW 5 7 29.83 1010 2 2 0.03 0.76
2:52 am 02:52 Cloudy with Mist and Fog 63 17.2 61 16.1 93 93 NNW 8 13 29.83 1010 2 3 0.00 0.00
2:59 am 02:59 Cloudy with Mist and Fog 63 17.2 61 16.1 93 93 NNW 7 11 29.83 1010 4 6 0.00 0.00
3:37 am 03:37 Cloudy with Light Rain 63 17.2 61 16.1 93 93 NW 9 15 29.83 1010 6 10 0.00 0.00
3:45 am 03:45 Cloudy with Light Rain 62 16.7 61 16.1 96 96 NW 8 13 29.84 1010 2 3 0.00 0.00
3:52 am 03:52 Cloudy with Light Rain 62 16.7 61 16.1 96 96 NW 12 19 29.83 1010 2 2 0.01 0.25
4:52 am 04:52 Cloudy with Drizzle 62 16.7 61 16.1 96 96 NNW 7 11 29.83 1010 2 2 0.02 0.51
5:52 am 05:52 Cloudy with Drizzle 62 16.7 61 16.1 96 96 NNW 8 13 29.84 1011 2 2 0.02 0.51
6:07 am 06:07 Cloudy with Drizzle 62 16.7 61 16.1 96 96 NNW 7 11 29.86 1011 2 2 0.00 0.00
6:27 am 06:27 Cloudy with Mist and Fog 62 16.7 60 15.6 93 93 NW 8 13 29.86 1011 3 4 0.00 0.00
6:42 am 06:42 Cloudy with Mist and Fog 62 16.7 60 15.6 93 93 NNW 8 13 29.87 1011 3 5 0.00 0.00
6:52 am 06:52 Cloudy with Mist and Fog 62 16.7 60 15.6 93 93 NNW 9 15 29.87 1011 4 6 0.00 0.00
7:52 am 07:52 Cloudy with Mist and Fog 62 16.7 59 15 90 90 NW 9 15 29.88 1012 5 8 0.00 0.00
8:52 am 08:52 Cloudy with Mist and Fog 63 17.2 59 15 87 87 N 12 19 29.88 1012 6 10 0.00 0.00
9:52 am 09:52 Cloudy with Drizzle 64 17.8 61 16.1 90 90 N 15 24 29.88 1012 3 5 0.00 0.00
10:00 am 10:00 Cloudy with Drizzle 64 17.8 61 16.1 90 90 N 15 24 29.88 1012 3 5 0.00 0.00
10:52 am 10:52 Cloudy 65 18.3 61 16.1 87 87 Calm 29.88 1012 7 11 0.00 0.00
11:52 am 11:52 Cloudy 67 19.4 62 16.7 84 84 N 10 17 29.89 1012 8 13 0.00 0.00
12:13 pm 12:13 Cloudy 68 20 62 16.7 81 81 N 12 19 29.87 1012 8 13 0.00 0.00
12:52 pm 12:52 Cloudy with Drizzle 67 19.4 63 17.2 87 87 N 9 15 29.88 1012 5 8 0.00 0.00
1:52 pm 13:52 Cloudy with Drizzle 67 19.4 64 17.8 91 91 N 9 15 29.88 1012 7 11 0.00 0.00
2:21 pm 14:21 Cloudy with Light Rain 66 18.9 65 18.3 96 96 N 10 17 29.88 1012 3 5 0.00 0.00
2:32 pm 14:32 Cloudy with Light Rain 67 19.4 65 18.3 93 93 N 8 13 29.88 1012 4 6 0.01 0.25
2:36 pm 14:36 Cloudy with Light Rain 67 19.4 65 18.3 93 93 N 8 13 29.88 1012 3 4 0.01 0.25
2:48 pm 14:48 Cloudy with Drizzle 66 19 64 18 94 94 N 9 15 29.88 1012 3 4 0.01 0.25
2:52 pm 14:52 Cloudy with Drizzle 67 19.4 65 18.3 93 93 NNW 8 13 29.88 1012 3 4 0.01 0.25
3:21 pm 15:21 Cloudy with Drizzle 68 20 65 18.3 90 90 N 10 17 29.86 1011 3 4 0.00 0.00
3:35 pm 15:35 Cloudy with Drizzle 67 19.4 65 18.3 93 93 NNW 8 13 29.87 1011 3 4 0.00 0.00
3:52 pm 15:52 Cloudy 68 20 65 18.3 90 90 NNW 8 13 29.87 1012 3 4 0.00 0.00
4:21 pm 16:21 Cloudy 69 20.6 65 18.3 87 87 N 8 13 29.85 1011 10 16 0.00 0.00
4:52 pm 16:52 Cloudy 68 20 65 18.3 90 90 NNW 9 15 29.86 1011 10 16 0.00 0.00
5:34 pm 17:34 Cloudy 68 20 64 17.8 87 87 N 12 19 29.85 1011 10 16 0.00 0.00
5:52 pm 17:52 Cloudy 69 20.6 64 17.8 84 84 N 10 17 29.86 1011 10 16 0.00 0.00
6:48 pm 18:48 Cloudy 70 21 64 18 83 83 N 9 15 29.85 1011 10 16 0.00 0.00
6:52 pm 18:52 Cloudy 70 21.1 64 17.8 82 82 N 8 13 29.86 1011 10 16 0.00 0.00
7:52 pm 19:52 Cloudy 70 21.1 65 18.3 84 84 N 7 11 29.87 1012 10 16 0.00 0.00
8:52 pm 20:52 Mostly Cloudy 68 20 65 18.3 90 90 N 5 7 29.88 1012 10 16 0.00 0.00
9:52 pm 21:52 Mostly Cloudy 66 18.9 64 17.8 93 93 NNW 5 7 29.87 1012 10 16 0.00 0.00
10:52 pm 22:52 Cloudy 67 19.4 65 18.3 93 93 NNW 6 9 29.89 1012 10 16 0.00 0.00
11:52 pm 23:52 Cloudy 65 18.3 63 17.2 93 93 NNW 6 9 29.88 1012 10 16 0.00 0.00

Powered by AerisWeather